UAL420 KBOI-KSLC

Flight info

Callsign UAL420
Flight time 0h 51m
Altitude 35000
Route ROARR BYI SKEES6
Aircraft A346/H-SDE2E3FGHIJ3J4J5M1RWXY/LB1D1

Departure

Time 2026-05-08 05:39
Airport Boise Air Terminal/Gowen Field (KBOI)

Arrival

Time 2026-05-08 06:30
Airport Salt Lake City International Airport (KSLC)
Time Latitude Longitude Altitude Speed Heading
2026-05-08 05:19 43.56698 -116.22033 2890 ft 0 kts 37°
2026-05-08 05:30 43.56696 -116.22034 2890 ft 4 kts 39°
2026-05-08 05:31 43.56685 -116.22042 2890 ft 4 kts 33°
2026-05-08 05:31 43.56670 -116.22062 2890 ft 4 kts 65°
2026-05-08 05:31 43.56667 -116.22087 2890 ft 4 kts 101°
2026-05-08 05:31 43.56676 -116.22120 2890 ft 4 kts 115°
2026-05-08 05:32 43.56685 -116.22147 2890 ft 1 kts 114°
2026-05-08 05:32 43.56686 -116.22152 2890 ft 0 kts 114°
2026-05-08 05:33 43.56683 -116.22140 2890 ft 3 kts 114°
2026-05-08 05:34 43.56669 -116.22117 2890 ft 4 kts 142°
2026-05-08 05:34 43.56637 -116.22095 2890 ft 7 kts 156°
2026-05-08 05:34 43.56589 -116.22046 2889 ft 12 kts 127°
2026-05-08 05:34 43.56546 -116.21937 2889 ft 15 kts 116°
2026-05-08 05:35 43.56491 -116.21774 2889 ft 24 kts 114°
2026-05-08 05:35 43.56420 -116.21561 2889 ft 25 kts 116°
2026-05-08 05:35 43.56342 -116.21339 2890 ft 26 kts 115°
2026-05-08 05:35 43.56262 -116.21108 2890 ft 27 kts 115°
2026-05-08 05:36 43.56191 -116.20904 2890 ft 14 kts 120°
2026-05-08 05:36 43.56112 -116.20884 2890 ft 13 kts 199°
2026-05-08 05:36 43.56019 -116.20943 2889 ft 11 kts 205°
2026-05-08 05:36 43.56011 -116.20948 2889 ft 0 kts 205°
2026-05-08 05:37 43.56010 -116.20948 2889 ft 0 kts 205°
2026-05-08 05:37 43.55972 -116.20973 2889 ft 10 kts 205°
2026-05-08 05:38 43.55920 -116.21046 2889 ft 12 kts 259°
2026-05-08 05:38 43.55948 -116.21170 2889 ft 20 kts 294°
2026-05-08 05:38 43.56148 -116.21755 2890 ft 113 kts 295°
2026-05-08 05:38 43.56590 -116.23059 2933 ft 180 kts 296°
2026-05-08 05:39 43.57134 -116.24679 3780 ft 188 kts 296°
2026-05-08 05:39 43.57691 -116.26339 4874 ft 190 kts 295°
2026-05-08 05:39 43.58235 -116.28011 5645 ft 197 kts 295°
2026-05-08 05:39 43.58736 -116.29835 6353 ft 209 kts 285°
2026-05-08 05:40 43.58792 -116.31875 7082 ft 219 kts 263°
2026-05-08 05:40 43.58196 -116.33865 7796 ft 236 kts 239°
2026-05-08 05:40 43.56885 -116.35447 8203 ft 270 kts 210°
2026-05-08 05:40 43.55083 -116.36534 8767 ft 292 kts 206°
2026-05-08 05:41 43.53163 -116.37562 9746 ft 298 kts 204°
2026-05-08 05:41 43.51197 -116.38514 10756 ft 302 kts 201°
2026-05-08 05:41 43.49050 -116.38845 11426 ft 326 kts 176°
2026-05-08 05:41 43.46854 -116.37765 11968 ft 351 kts 148°
2026-05-08 05:42 43.45128 -116.35288 12509 ft 370 kts 120°
2026-05-08 05:42 43.44211 -116.31910 13090 ft 385 kts 102°
2026-05-08 05:42 43.43711 -116.28244 13867 ft 393 kts 97°
2026-05-08 05:42 43.43263 -116.24507 14721 ft 398 kts 98°
2026-05-08 05:43 43.42776 -116.20733 15415 ft 402 kts 99°
2026-05-08 05:43 43.42243 -116.16939 15861 ft 404 kts 100°
2026-05-08 05:43 43.41668 -116.13111 16380 ft 412 kts 101°
2026-05-08 05:43 43.41066 -116.09246 17316 ft 413 kts 101°
2026-05-08 05:44 43.40452 -116.05375 18252 ft 416 kts 101°
2026-05-08 05:44 43.39826 -116.01465 18962 ft 420 kts 102°
2026-05-08 05:44 43.39189 -115.97521 19677 ft 425 kts 102°
2026-05-08 05:44 43.38551 -115.93580 20392 ft 429 kts 102°
2026-05-08 05:45 43.37897 -115.89555 21139 ft 433 kts 102°
2026-05-08 05:45 43.37235 -115.85487 21872 ft 438 kts 102°
2026-05-08 05:45 43.36563 -115.81376 22601 ft 442 kts 102°
2026-05-08 05:45 43.35884 -115.77231 23324 ft 446 kts 102°
2026-05-08 05:46 43.35197 -115.73048 23987 ft 450 kts 102°
2026-05-08 05:46 43.34501 -115.68837 24576 ft 454 kts 102°
2026-05-08 05:46 43.33796 -115.64569 25128 ft 459 kts 102°
2026-05-08 05:46 43.33080 -115.60236 25688 ft 465 kts 102°
2026-05-08 05:47 43.32357 -115.55874 26238 ft 470 kts 101°
2026-05-08 05:47 43.31624 -115.51463 26788 ft 475 kts 101°
2026-05-08 05:47 43.30882 -115.47012 27321 ft 480 kts 101°
2026-05-08 05:47 43.30080 -115.42529 27866 ft 485 kts 104°
2026-05-08 05:48 43.28999 -115.38143 28679 ft 484 kts 110°
2026-05-08 05:48 43.27636 -115.33939 29602 ft 481 kts 115°
2026-05-08 05:48 43.25999 -115.29930 30347 ft 480 kts 120°
2026-05-08 05:48 43.24222 -115.26055 31019 ft 479 kts 122°
2026-05-08 05:49 43.22421 -115.22219 31701 ft 477 kts 122°
2026-05-08 05:49 43.20622 -115.18399 32376 ft 476 kts 121°
2026-05-08 05:49 43.18828 -115.14581 33005 ft 475 kts 121°
2026-05-08 05:49 43.17043 -115.10767 33638 ft 475 kts 121°
2026-05-08 05:50 43.15262 -115.06952 34173 ft 476 kts 121°
2026-05-08 05:50 43.13477 -115.03128 34617 ft 478 kts 121°
2026-05-08 05:50 43.11681 -114.99280 34943 ft 480 kts 121°
2026-05-08 05:51 43.08074 -114.91564 35004 ft 481 kts 121°
2026-05-08 05:51 43.05065 -114.85149 35021 ft 481 kts 121°
2026-05-08 05:52 43.01444 -114.77445 35037 ft 481 kts 121°
2026-05-08 05:52 42.97816 -114.69750 35044 ft 481 kts 121°
2026-05-08 05:53 42.94178 -114.62047 35050 ft 489 kts 121°
2026-05-08 05:53 42.92311 -114.58098 35043 ft 501 kts 121°
2026-05-08 05:53 42.90390 -114.54043 35035 ft 514 kts 121°
2026-05-08 05:53 42.88424 -114.49901 35023 ft 526 kts 121°
2026-05-08 05:54 42.86410 -114.45673 35021 ft 536 kts 121°
2026-05-08 05:54 42.82323 -114.37099 34959 ft 540 kts 121°
2026-05-08 05:55 42.78218 -114.28507 34954 ft 540 kts 121°
2026-05-08 05:55 42.74111 -114.19938 34949 ft 540 kts 121°
2026-05-08 05:56 42.69996 -114.11374 34969 ft 540 kts 121°
2026-05-08 05:56 42.65877 -114.02825 34986 ft 540 kts 121°
2026-05-08 05:57 42.61753 -113.94293 35007 ft 540 kts 121°
2026-05-08 05:57 42.57282 -113.86092 35019 ft 537 kts 128°
2026-05-08 05:58 42.52148 -113.78636 35036 ft 543 kts 134°
2026-05-08 05:58 42.46742 -113.71444 35023 ft 544 kts 134°
2026-05-08 05:59 42.41380 -113.64308 35002 ft 544 kts 134°
2026-05-08 05:59 42.35949 -113.57067 34982 ft 544 kts 134°
2026-05-08 06:00 42.30588 -113.49927 34746 ft 546 kts 134°
2026-05-08 06:00 42.27888 -113.46343 34231 ft 541 kts 134°
2026-05-08 06:00 42.25214 -113.42802 33753 ft 536 kts 135°
2026-05-08 06:00 42.22552 -113.39288 33122 ft 534 kts 134°
2026-05-08 06:01 42.19906 -113.35794 32519 ft 531 kts 134°
2026-05-08 06:01 42.17269 -113.32311 31843 ft 530 kts 134°
2026-05-08 06:01 42.14630 -113.28832 31115 ft 530 kts 134°
2026-05-08 06:01 42.11991 -113.25355 30475 ft 530 kts 135°
2026-05-08 06:02 42.09347 -113.21876 29831 ft 534 kts 135°
2026-05-08 06:02 42.06664 -113.18350 29127 ft 542 kts 135°
2026-05-08 06:02 42.03958 -113.14798 28511 ft 543 kts 135°
2026-05-08 06:02 42.01267 -113.11273 27885 ft 537 kts 135°
2026-05-08 06:03 41.98602 -113.07786 27328 ft 532 kts 135°
2026-05-08 06:03 41.95958 -113.04330 26675 ft 527 kts 135°
2026-05-08 06:03 41.93341 -113.00914 26133 ft 521 kts 135°
2026-05-08 06:03 41.90756 -112.97543 25620 ft 515 kts 135°
2026-05-08 06:04 41.88193 -112.94204 25117 ft 510 kts 135°
2026-05-08 06:04 41.85658 -112.90907 24622 ft 505 kts 135°
2026-05-08 06:04 41.83146 -112.87642 24143 ft 500 kts 135°
2026-05-08 06:04 41.80657 -112.84410 23674 ft 495 kts 136°
2026-05-08 06:05 41.78190 -112.81209 23145 ft 491 kts 136°
2026-05-08 06:05 41.75747 -112.78042 22660 ft 487 kts 136°
2026-05-08 06:05 41.73312 -112.74892 22162 ft 485 kts 136°
2026-05-08 06:05 41.70903 -112.71779 21711 ft 477 kts 136°
2026-05-08 06:06 41.68533 -112.68719 21247 ft 469 kts 136°
2026-05-08 06:06 41.66207 -112.65720 20840 ft 460 kts 136°
2026-05-08 06:06 41.63917 -112.62770 20447 ft 452 kts 136°
2026-05-08 06:06 41.61670 -112.59879 20052 ft 446 kts 136°
2026-05-08 06:07 41.59442 -112.57014 19549 ft 442 kts 136°
2026-05-08 06:07 41.57235 -112.54178 19011 ft 439 kts 136°
2026-05-08 06:07 41.55068 -112.51398 18307 ft 436 kts 137°
2026-05-08 06:07 41.52880 -112.48622 17665 ft 430 kts 139°
2026-05-08 06:08 41.50652 -112.45987 17000 ft 425 kts 140°
2026-05-08 06:08 41.48434 -112.43401 16326 ft 421 kts 140°
2026-05-08 06:08 41.46234 -112.40841 15634 ft 417 kts 140°
2026-05-08 06:08 41.44105 -112.38242 15000 ft 413 kts 137°
2026-05-08 06:09 41.42119 -112.35506 14388 ft 408 kts 135°
2026-05-08 06:09 41.40183 -112.32759 13768 ft 404 kts 135°
2026-05-08 06:09 41.38270 -112.30033 13058 ft 401 kts 135°
2026-05-08 06:09 41.36366 -112.27339 12482 ft 397 kts 135°
2026-05-08 06:10 41.34497 -112.24696 12025 ft 387 kts 135°
2026-05-08 06:10 41.32669 -112.22113 11599 ft 378 kts 135°
2026-05-08 06:10 41.30891 -112.19600 11336 ft 365 kts 135°
2026-05-08 06:10 41.29195 -112.17204 11258 ft 347 kts 135°
2026-05-08 06:11 41.27581 -112.14923 11186 ft 330 kts 135°
2026-05-08 06:11 41.26041 -112.12751 11083 ft 315 kts 135°
2026-05-08 06:11 41.24568 -112.10679 11018 ft 301 kts 135°
2026-05-08 06:11 41.23141 -112.08672 11018 ft 298 kts 135°
2026-05-08 06:12 41.21710 -112.06742 10935 ft 289 kts 141°
2026-05-08 06:12 41.20050 -112.05286 10559 ft 283 kts 156°
2026-05-08 06:12 41.18233 -112.04382 10231 ft 276 kts 171°
2026-05-08 06:12 41.16358 -112.04002 9914 ft 269 kts 178°
2026-05-08 06:13 41.14509 -112.03798 9635 ft 264 kts 179°
2026-05-08 06:13 41.12688 -112.03626 9384 ft 260 kts 179°
2026-05-08 06:13 41.10897 -112.03447 9154 ft 256 kts 179°
2026-05-08 06:13 41.09153 -112.03260 9040 ft 245 kts 178°
2026-05-08 06:14 41.07507 -112.03071 9064 ft 228 kts 178°
2026-05-08 06:14 41.05956 -112.02889 9007 ft 221 kts 178°
2026-05-08 06:14 41.04431 -112.02709 8768 ft 219 kts 178°
2026-05-08 06:14 41.02928 -112.02531 8468 ft 214 kts 177°
2026-05-08 06:15 41.01482 -112.02358 8176 ft 203 kts 177°
2026-05-08 06:15 41.00111 -112.02194 7893 ft 192 kts 177°
2026-05-08 06:15 40.98828 -112.02041 7631 ft 180 kts 177°
2026-05-08 06:15 40.97597 -112.01897 7409 ft 177 kts 177°
2026-05-08 06:16 40.96367 -112.01754 7210 ft 179 kts 176°
2026-05-08 06:16 40.95117 -112.01608 6984 ft 181 kts 177°
2026-05-08 06:16 40.93863 -112.01460 6782 ft 181 kts 176°
2026-05-08 06:16 40.92614 -112.01314 6591 ft 179 kts 175°
2026-05-08 06:17 40.90191 -112.01032 6176 ft 171 kts 174°
2026-05-08 06:17 40.89020 -112.00894 5965 ft 168 kts 174°
2026-05-08 06:17 40.87865 -112.00758 5729 ft 166 kts 174°
2026-05-08 06:18 40.86725 -112.00624 5460 ft 167 kts 174°
2026-05-08 06:18 40.85538 -112.00483 5233 ft 170 kts 175°
2026-05-08 06:18 40.84379 -112.00350 5009 ft 169 kts 175°
2026-05-08 06:18 40.83130 -112.00206 5130 ft 189 kts 175°
2026-05-08 06:19 40.81850 -112.00051 6188 ft 184 kts 175°
2026-05-08 06:19 40.80588 -111.99906 6911 ft 186 kts 178°
2026-05-08 06:19 40.79290 -112.00275 7240 ft 201 kts 211°
2026-05-08 06:19 40.78303 -112.01627 7624 ft 214 kts 246°
2026-05-08 06:20 40.78051 -112.03589 8009 ft 225 kts 278°
2026-05-08 06:20 40.78716 -112.05437 8099 ft 227 kts 312°
2026-05-08 06:20 40.79935 -112.06780 8091 ft 228 kts 321°
2026-05-08 06:20 40.81178 -112.08088 8088 ft 228 kts 321°
2026-05-08 06:21 40.82417 -112.09393 8095 ft 228 kts 321°
2026-05-08 06:21 40.83657 -112.10701 8091 ft 229 kts 321°
2026-05-08 06:21 40.84903 -112.12014 8089 ft 228 kts 321°
2026-05-08 06:21 40.86136 -112.13315 8077 ft 226 kts 322°
2026-05-08 06:22 40.87441 -112.14459 8067 ft 226 kts 340°
2026-05-08 06:22 40.88978 -112.14967 8085 ft 229 kts 349°
2026-05-08 06:22 40.90556 -112.15293 8077 ft 230 kts 351°
2026-05-08 06:22 40.92138 -112.15582 8068 ft 230 kts 351°
2026-05-08 06:23 40.93722 -112.15865 8061 ft 230 kts 351°
2026-05-08 06:23 40.95308 -112.16149 8051 ft 230 kts 351°
2026-05-08 06:23 40.96946 -112.16446 8099 ft 247 kts 351°
2026-05-08 06:23 40.98680 -112.16535 8062 ft 253 kts 10°
2026-05-08 06:24 41.00274 -112.15542 8074 ft 258 kts 39°
2026-05-08 06:24 41.01474 -112.13826 7997 ft 250 kts 49°
2026-05-08 06:24 41.02518 -112.12018 7855 ft 243 kts 51°
2026-05-08 06:24 41.03303 -112.10049 7612 ft 244 kts 72°
2026-05-08 06:25 41.03627 -112.07848 7510 ft 245 kts 90°
2026-05-08 06:25 41.03202 -112.05730 7478 ft 234 kts 123°
2026-05-08 06:25 41.02142 -112.04142 7529 ft 229 kts 140°
2026-05-08 06:25 41.00863 -112.02909 7544 ft 227 kts 153°
2026-05-08 06:26 40.99410 -112.02199 7576 ft 230 kts 168°
2026-05-08 06:26 40.97758 -112.01856 7466 ft 242 kts 175°
2026-05-08 06:26 40.96078 -112.01675 7184 ft 243 kts 178°
2026-05-08 06:26 40.94392 -112.01518 6878 ft 243 kts 177°
2026-05-08 06:27 40.92723 -112.01341 6603 ft 235 kts 175°
2026-05-08 06:27 40.91157 -112.01155 6333 ft 222 kts 174°
2026-05-08 06:27 40.89667 -112.00976 6075 ft 208 kts 174°
2026-05-08 06:27 40.88273 -112.00810 5801 ft 195 kts 174°
2026-05-08 06:28 40.86969 -112.00656 5518 ft 181 kts 174°
2026-05-08 06:28 40.85738 -112.00510 5243 ft 172 kts 175°
2026-05-08 06:28 40.84573 -112.00374 5040 ft 169 kts 175°
2026-05-08 06:28 40.83408 -112.00233 4801 ft 166 kts 174°
2026-05-08 06:29 40.82268 -112.00104 4568 ft 163 kts 174°
2026-05-08 06:29 40.81147 -111.99980 4330 ft 160 kts 174°
2026-05-08 06:29 40.80057 -111.99846 4241 ft 143 kts 175°
2026-05-08 06:29 40.79288 -111.99753 4239 ft 79 kts 175°
2026-05-08 06:30 40.78964 -111.99714 4242 ft 15 kts 174°
2026-05-08 06:30 40.78888 -111.99684 4242 ft 14 kts 155°
2026-05-08 06:30 40.78792 -111.99613 4241 ft 17 kts 147°
2026-05-08 06:30 40.78693 -111.99506 4240 ft 20 kts 143°
2026-05-08 06:31 40.78650 -111.99359 4240 ft 19 kts 91°
2026-05-08 06:31 40.78661 -111.99177 4240 ft 21 kts 85°
2026-05-08 06:31 40.78670 -111.99044 4240 ft 6 kts 85°
2026-05-08 06:31 40.78675 -111.98971 4240 ft 9 kts 84°
2026-05-08 06:32 40.78683 -111.98861 4240 ft 14 kts 84°
2026-05-08 06:32 40.78696 -111.98723 4239 ft 17 kts 82°
2026-05-08 06:32 40.78685 -111.98637 4239 ft 8 kts 154°
2026-05-08 06:32 40.78640 -111.98615 4239 ft 0 kts 169°